Regional Weather Roundup
Issued by NWS Cleveland, OH

Home | Current Version | Previous Version | Text Only | Print | Product List | Glossary Off
Versions: 1 2 3 4 5 6 7 8 9 10 11 12 13 14 15 16 17 18 19 20 21 22 23 24 25 26 27 28 29 30 31 32 33 34 35 36 37 38 39 40 41 42 43 44 45 46 47 48 49 50

000
ASUS41 KCLE 181100
RWRCLE
OHIO REGIONAL WEATHER ROUNDUP
NATIONAL WEATHER SERVICE WILMINGTON, OH
600 AM EST MON DEC 18 2017

NOTE: "FAIR" INDICATES FEW OR NO CLOUDS BELOW 12,000 FEET WITH NO
SIGNIFICANT WEATHER AND/OR OBSTRUCTIONS TO VISIBILITY.

OHZ001>008-015>018-024>027-034-035-043-044-181200-
   NORTHWEST OHIO

CITY           SKY/WX    TMP DP  RH WIND       PRES   REMARKS
DEFIANCE       CLOUDY    38  34  85 S7        29.99F
FINDLAY        CLOUDY    39  34  82 SW12      30.00F
TOLEDO EXPRESS CLOUDY    39  36  89 SW10      29.98F
TOLEDO EXEC    CLOUDY    39  34  82 SW12      30.00F
LIMA           CLOUDY    38  36  92 S8        30.01S
$$

OHZ009>014-019>023-028>033-038-089-181200-
   NORTHEAST OHIO

CITY           SKY/WX    TMP DP  RH WIND       PRES   REMARKS
CLE-HOPKINS    CLOUDY    39  33  79 SW9       30.04S
CLE-LAKEFRONT  CLOUDY    40  32  73 S10       30.01S
CUY CO. ARPT   NOT AVBL
LORAIN-ELYRIA  CLOUDY    36  29  75 SW8       30.03R
ASHTABULA      CLOUDY    36  32  85 S10       30.02S
AKRON-CANTON   CLOUDY    36  30  79 S7        30.04S
WOOSTER        NOT AVBL
MANSFIELD      CLOUDY    37  34  89 SW8       30.01F
YOUNGSTOWN     CLOUDY    37  31  78 S7        30.03S
$$

OHZ042-051>053-060>062-070>072-077>081-181200-
  SOUTHWEST OHIO

CITY           SKY/WX    TMP DP  RH WIND       PRES   REMARKS
CINC-COVINGTON FOG       41  41 100 S8        30.07S VSB 1
CINC-LUNKEN    CLOUDY    42  41  96 SW5       30.10S FOG
HAMILTON       CLOUDY    42  41  96 S3        30.08F FOG
DAYTON         NOT AVBL
WRIGHT-PAT AFB CLOUDY    41  41  99 S8        30.05S
DAYTON GENERAL CLOUDY    41  38  89 SW6       30.05S
WILMINGTON     CLOUDY    39  39 100 SW10      30.05F FOG
$$

OHZ036-037-039>041-045>050-054>059-063>069-073>076-082>088-181200-
  CENTRAL AND SOUTHEAST OHIO

CITY           SKY/WX    TMP DP  RH WIND       PRES   REMARKS
COLUMBUS       CLOUDY    40  38  93 S7        30.06S
OSU AIRPORT    CLOUDY    39  39 100 S9        30.05F
BOLTON FIELD   NOT AVBL
RICKENBACK AFB NOT AVBL
NEWARK         CLOUDY    39  36  89 S3        30.05F
MARION         CLOUDY    36  33  89 S6        30.03F
LANCASTER      CLOUDY    39  37  92 S7        30.07F
ZANESVILLE     CLOUDY    40  35  83 S8        30.07F
NEW PHILLY     CLOUDY    38  34  85 CALM      30.07S
$$




USA.gov is the U.S. government's official web portal to all federal, state and local government web resources and services.